Showing default

NIGCOMSAT 1R, 38014

Orbit data source: Space-Track

NIGCOMSAT 1R, 38014 is a payload satellite owned by Nigcomsat (NG) in GEO that was launched on Mon, 19 Dec 2011 UTC via a CHANG ZHENG 3B launch vehicle from the Xichang Space Center, China (XSC). Payload-class satellites include a variety of spacecraft equipped with specific instruments for various scientific and technological missions. These include communications satellites like Starlink; space stations such as the ISS; scientific satellites like the Hubble; Earth observation satellites from companies like Planet Labs, Umbra, and HawkEye 360; GPS; miniature CubeSats for education and research; and military/defense satellites.

Not visible in the next 10 days
Identifier
38014, 2011-077A
Orbit
GEO
Country
Flag of NGNG / NIG
Related business
Manufacturer
CAST
Mission
Operational Civil Communications
Bus & Motor
DFH-4, DFH-4 LAE
Mass
~5,086 kg wet, ~2,500 kg dry
Launch date (UTC)
2011-12-19 (14 years ago)
Launch vehicle
CHANG ZHENG 3B
Launch site
Xichang Space Center, China (XSC)
Object type
Payload
Rocket body
Debris
Shape & HBR
Box + 2 Pan, 15.0 m
Radar Cross Section
34.063 m², Large (>1 m²)

Expand to show TLE details & history
Last TLE update: 7 hours ago

TLE from 7 hours ago
0 NIGCOMSAT 1R
1 38014U 11077A   26034.28213637  .00000136  00000-0  00000-0 0  9999
2 38014   0.0228 140.7540 0002310 166.3423 330.3994  1.00274036 51619
Epoch: 2026-02-03T06:46Z
TLE epoch observation values (Epoch: 2026-02-03T06:46:16.582Z)
Latitude
0.01608°
Longitude
42.48619°
Altitude
35,776.942 km
Speed
3.075 km/s
True Right ascension
18h 30m 04s
True Declination
0° 00' 58"
Sunlit
Object was in daylight at epoch
Visualization orbit readout
Latitude
Unknown
Longitude
Unknown
Altitude
Unknown
Speed
Unknown
Apparent Right ascension
Unknown
Apparent Declination
Unknown
Sunlit
N/A
Visualization observer readout
Local Sidereal Time
15:31:32
Azimuth
Unknown
Elevation
Unknown
Doppler factor
Unknown
Orbital elements
Apogee altitude
35,796.774 km
Perigee altitude
35,777.294 km
Semi-major axis
42,165.171 km
Eccentricity
0.00023
Inclination
0.0228°
RAAN
140.754°
Arg. of periapsis
166.3423°
True anomaly
330.38632°
Mean anomaly
330.3994°
Eccentric anomaly
330.39286°
Mean motion
0.25068 °/min
Orbital period
1,436.12 mins
BSTAR
0
Loading maneuver chart data...
Computing Atmospheric mass density...
Loading historical data...
Loading historical data...
Loading historical data...
Loading historical data...
Loading historical data...
Loading historical data...
Loading historical data...

Documentation

Showing up to 5 results
|